Location: Home
(42.5358°N, 72.7383°W)
Time: 22:06:24
(UTC-05:00)

Vanguard 1 Rocket - Pass Details

Date: 06 December 2021
Orbit: 651 x 4225 km, 34.3° (Epoch: 26 January)

Event Time Altitude Azimuth Distance (km) Brightness Sun altitude
Exits shadow 01:10:46 24° 100° (E) 4,004 10.7 -62.8°
Drops below altitude 10° 01:17:15 10° 87° (E) 5,746 11.7 -61.8°
Sets 01:23:20 0° 81° (E) 7,340 12.4 -60.9°
